Weather History for Indianapolis, IN

Change the Weather History Date:

Monday, October 29, 2012

  Actual Average (KEYE) Record (KEYE)
Temperature  
Mean Temperature 42 °F 51 °F  
Max Temperature 51 °F 60 °F 77 °F (1999)
Min Temperature 34 °F 42 °F 30 °F (2005)
Degree Days  
Heating Degree Days 23 14  
Month to date heating degree days 300  
Since 1 July heating degree days 361  
Cooling Degree Days 0 0  
Month to date cooling degree days 12  
Year to date cooling degree days 1055  
Moisture  
Dew Point 24 °F    
Average Humidity 54    
Maximum Humidity 76    
Minimum Humidity 25    
Precipitation  
Precipitation 0.00 in 0.09 in 0.62 in (2002)
Month to date precipitation 2.93  
Year to date precipitation 33.83  
Sea Level Pressure  
Sea Level Pressure 30.09 in    
Wind  
Wind Speed 11 mph (NNW)    
Max Wind Speed 23 mph    
Max Gust Speed 33 mph    
Visibility 10 miles    
Events      
T = Trace of Precipitation, MM = Missing Value Source: NWS Daily Summary

Daily Weather History Graph

Daily Weather History Graph

Search for Another Location

Airport:

Trip Planner

Search our weather history database for the weather conditions in past years. The results will help you decide how hot, cold, wet, or windy it might be!

Date:

Astronomy

Oct. 29, 2012 Rise Set
Actual Time 8:11 AM EDT 6:45 PM EDT
Civil Twilight 7:43 AM EDT 7:13 PM EDT
Nautical Twilight 7:11 AM EDT 7:45 PM EDT
Astronomical Twilight 6:39 AM EDT 8:16 PM EDT
Moon 6:37 PM EDT (10/29) 8:01 AM EDT (10/29)
Length of Visible Light 11h 30m
Length of Day
10h 34m
Full, 100% of the Moon is Illuminated
Oct 29
Full
Oct 29
Full
Nov 6
Last Quarter
Nov 13
New
Nov 20
First Quarter

Hourly Weather History & Observations

Time (EDT) Temp. Windchill Dew Point Humidity Pressure Visibility Wind Dir Wind Speed Gust Speed Precip Events Conditions
12:15 AM 37.6 °F 33.1 °F 29.3 °F 72% 30.15 in 10.0 mi NNW 5.8 mph - N/A   Clear
12:55 AM 36.5 °F 31.8 °F 29.3 °F 75% 30.15 in 10.0 mi NNW 5.8 mph - N/A   Clear
1:15 AM 36.0 °F 31.1 °F 29.1 °F 76% 30.15 in 10.0 mi NNW 5.8 mph - N/A   Clear
1:35 AM 36.0 °F 31.1 °F 28.4 °F 74% 30.15 in 10.0 mi NNW 5.8 mph - N/A   Clear
1:55 AM 34.9 °F 29.9 °F 28.0 °F 76% 30.14 in 10.0 mi NNW 5.8 mph - N/A   Clear
2:15 AM 35.1 °F 30.1 °F 28.0 °F 76% 30.14 in 10.0 mi NNW 5.8 mph - N/A   Clear
2:35 AM 35.1 °F 29.3 °F 27.9 °F 75% 30.14 in 10.0 mi NNW 6.9 mph - N/A   Clear
2:55 AM 35.8 °F 29.4 °F 27.5 °F 72% 30.14 in 10.0 mi NNW 8.1 mph - N/A   Clear
3:15 AM 35.1 °F 29.3 °F 27.0 °F 72% 30.14 in 10.0 mi NNW 6.9 mph - N/A   Clear
3:35 AM 35.4 °F 28.4 °F 26.6 °F 70% 30.14 in 10.0 mi NNW 9.2 mph - N/A   Clear
3:55 AM 35.8 °F 27.8 °F 26.2 °F 68% 30.13 in 10.0 mi North 11.5 mph - N/A   Clear
4:15 AM 35.6 °F 28.6 °F 25.7 °F 67% 30.13 in 10.0 mi North 9.2 mph - N/A   Clear
4:35 AM 35.4 °F 29.7 °F 25.5 °F 67% 30.13 in 10.0 mi NNW 6.9 mph - N/A   Clear
4:55 AM 34.7 °F 28.8 °F 25.5 °F 69% 30.14 in 10.0 mi NNW 6.9 mph - N/A   Clear
5:15 AM 34.7 °F 26.9 °F 25.5 °F 69% 30.14 in 10.0 mi NNW 10.4 mph - N/A   Clear
5:35 AM 35.2 °F 26.6 °F 25.2 °F 67% 30.14 in 10.0 mi NNW 12.7 mph 18.4 mph N/A   Clear
5:55 AM 35.1 °F 27.4 °F 25.2 °F 67% 30.14 in 10.0 mi NNW 10.4 mph 17.3 mph N/A   Clear
6:15 AM 35.6 °F 28.0 °F 25.3 °F 66% 30.14 in 10.0 mi NNW 10.4 mph 19.6 mph N/A   Clear
6:35 AM 35.6 °F 27.5 °F 25.7 °F 67% 30.13 in 10.0 mi NNW 11.5 mph 20.7 mph N/A   Clear
6:55 AM 35.6 °F 28.0 °F 25.7 °F 67% 30.13 in 10.0 mi NNW 10.4 mph - N/A   Clear
7:15 AM 35.6 °F 29.2 °F 25.7 °F 67% 30.13 in 10.0 mi NNW 8.1 mph - N/A   Clear
7:55 AM 35.2 °F 27.6 °F 25.9 °F 69% 30.14 in 10.0 mi North 10.4 mph - N/A   Clear
8:15 AM 35.1 °F 26.4 °F 26.1 °F 70% 30.14 in 10.0 mi North 12.7 mph - N/A   Clear
8:35 AM 35.1 °F 25.9 °F 25.7 °F 69% 30.14 in 10.0 mi NNW 13.8 mph - N/A   Clear
8:55 AM 35.1 °F 27.9 °F 25.7 °F 69% 30.14 in 10.0 mi NNW 9.2 mph 16.1 mph N/A   Clear
9:15 AM 35.2 °F 27.1 °F 25.7 °F 68% 30.14 in 10.0 mi NNW 11.5 mph 16.1 mph N/A   Clear
9:35 AM 36.9 °F 28.2 °F 26.1 °F 65% 30.14 in 10.0 mi NNW 13.8 mph 20.7 mph N/A   Clear
9:55 AM 38.5 °F 29.9 °F 25.9 °F 61% 30.13 in 10.0 mi NNW 15.0 mph 23.0 mph N/A   Clear
10:15 AM 39.7 °F 31.5 °F 25.0 °F 56% 30.14 in 10.0 mi NNW 15.0 mph 24.2 mph N/A   Clear
10:35 AM 41.0 °F 31.9 °F 23.5 °F 50% 30.14 in 10.0 mi NNW 19.6 mph 25.3 mph N/A   Clear
10:55 AM 42.1 °F 35.2 °F 21.6 °F 44% 30.14 in 10.0 mi North 12.7 mph 25.3 mph N/A   Clear
11:15 AM 43.7 °F 36.9 °F 20.5 °F 40% 30.14 in 10.0 mi North 13.8 mph 21.9 mph N/A   Clear
11:35 AM 44.8 °F 37.1 °F 19.0 °F 36% 30.13 in 10.0 mi North 18.4 mph 26.5 mph N/A   Clear
11:55 AM 45.5 °F 37.8 °F 16.5 °F 31% 30.13 in 10.0 mi North 19.6 mph 31.1 mph N/A   Clear
12:15 PM 46.6 °F - 16.2 °F 30% 30.14 in 10.0 mi North 20.7 mph 29.9 mph N/A   Clear
12:35 PM 47.8 °F - 17.6 °F 30% 30.13 in 10.0 mi North 18.4 mph 27.6 mph N/A   Clear
12:55 PM 49.1 °F - 18.3 °F 30% 30.12 in 10.0 mi North 21.9 mph 27.6 mph N/A   Clear
1:15 PM 49.1 °F - 17.2 °F 28% 30.11 in 10.0 mi North 21.9 mph 33.4 mph N/A   Clear
1:55 PM 50.5 °F - 16.0 °F 25% 30.08 in 10.0 mi North 20.7 mph 33.4 mph N/A   Clear
2:35 PM 49.6 °F - 15.6 °F 26% 30.07 in 10.0 mi North 20.7 mph 29.9 mph N/A   Clear
2:55 PM 50.9 °F - 16.3 °F 25% 30.06 in 10.0 mi North 18.4 mph 28.8 mph N/A   Clear
3:15 PM 49.5 °F - 15.3 °F 26% 30.06 in 10.0 mi North 17.3 mph 31.1 mph N/A   Clear
3:35 PM 50.0 °F - 16.2 °F 26% 30.05 in 10.0 mi North 20.7 mph 28.8 mph N/A   Clear
3:55 PM 50.0 °F - 17.6 °F 28% 30.04 in 10.0 mi NNW 23.0 mph 31.1 mph N/A   Clear
4:15 PM 49.8 °F - 18.1 °F 29% 30.04 in 10.0 mi NNW 16.1 mph 33.4 mph N/A   Clear
4:35 PM 48.9 °F - 19.0 °F 31% 30.03 in 10.0 mi North 18.4 mph 29.9 mph N/A   Clear
4:55 PM 48.6 °F - 21.6 °F 35% 30.03 in 10.0 mi NNW 15.0 mph 27.6 mph N/A   Clear
5:15 PM 48.4 °F - 21.2 °F 34% 30.03 in 10.0 mi NNW 18.4 mph 28.8 mph N/A   Clear
5:35 PM 47.8 °F - 22.3 °F 37% 30.02 in 10.0 mi NNW 17.3 mph 26.5 mph N/A   Clear
6:15 PM 46.8 °F - 26.4 °F 45% 30.01 in 10.0 mi NNW 18.4 mph 24.2 mph N/A   Clear
6:35 PM 46.4 °F 39.5 °F 28.2 °F 49% 30.00 in 10.0 mi NNW 17.3 mph 23.0 mph N/A   Clear
6:55 PM 45.9 °F 39.1 °F 28.4 °F 51% 30.00 in 10.0 mi NNW 16.1 mph 24.2 mph N/A   Clear
7:15 PM 45.1 °F 38.8 °F 30.4 °F 56% 29.99 in 10.0 mi NNW 13.8 mph 21.9 mph N/A   Clear
7:35 PM 45.0 °F 37.6 °F 31.6 °F 60% 29.99 in 10.0 mi NNW 17.3 mph 24.2 mph N/A   Clear
7:55 PM 44.6 °F 37.4 °F 32.0 °F 61% 29.98 in 10.0 mi NNW 16.1 mph 24.2 mph N/A   Clear
8:15 PM 44.2 °F 36.7 °F 32.2 °F 63% 29.98 in 10.0 mi NNW 17.3 mph 26.5 mph N/A   Clear
8:35 PM 44.1 °F 36.5 °F 32.4 °F 63% 29.97 in 10.0 mi NNW 17.3 mph 26.5 mph N/A   Clear
8:55 PM 43.7 °F 35.4 °F 32.4 °F 64% 29.96 in 10.0 mi NNW 19.6 mph 27.6 mph N/A   Clear
11:35 PM 43.0 °F 36.0 °F 27.5 °F 54% 29.90 in 10.0 mi NNW 13.8 mph 26.5 mph N/A   Clear
11:55 PM 42.8 °F 35.4 °F 27.5 °F 55% 29.89 in 10.0 mi NNW 15.0 mph 23.0 mph N/A   Clear